Weather reports worldwide

Advertisment
Vinga, Sweden (2516): temperature & dewpoint: 06.12.2019 11:00:00 - 12.12.2019 11:00:00 (CET)Vinga, Sweden (2516): wind speed & gusts: 06.12.2019 11:00:00 - 12.12.2019 11:00:00 (CET)Vinga, Sweden (2516): wind direction: 06.12.2019 11:00:00 - 12.12.2019 11:00:00 (CET)Vinga, Sweden (2516): reduced air pressure: 06.12.2019 11:00:00 - 12.12.2019 11:00:00 (CET)Vinga, Sweden (2516): visibility: 06.12.2019 11:00:00 - 12.12.2019 11:00:00 (CET)Vinga, Sweden (2516): precipitation: 06.12.2019 11:00:00 - 12.12.2019 11:00:00 (CET)
Date & Time tt [°C] td [°C] ff [km/h] ff [kn] fx [km/h] fx [kn] dd ppp [hPa] vv [km] rr [mm]
12.12.2019 11:00:00 5,2 3,2 32 17 40 21 SSW 995,7 5 0,5
12.12.2019 10:00:00 5,8 3,8 21 12 31 17 S 996,5 9 0,1
12.12.2019 09:00:00 6,3 4,1 25 13 28 15 S 996,6 14 0,0
12.12.2019 08:00:00 6,2 4,0 22 12 27 15 S 997,0 17 0,0
12.12.2019 07:00:00 6,1 4,1 19 10 24 13 S 997,3 15 0,0
12.12.2019 06:00:00 6,1 3,9 21 11 24 13 SSW 997,7 14 0,0
12.12.2019 05:00:00 6,1 4,4 20 11 26 14 SSW 998,0 12 0,0
12.12.2019 04:00:00 6,1 4,6 23 12 26 14 S 998,7 11 0,0
12.12.2019 03:00:00 6,4 4,6 21 11 27 15 SSW 999,2 12 0,0
12.12.2019 02:00:00 6,5 4,8 24 13 29 16 SSW 999,6 10 0,0
12.12.2019 01:00:00 6,7 5,0 23 13 32 17 SSW 1000,0 9 0,0
12.12.2019 00:00:00 6,7 5,3 27 15 32 18 SSW 1000,2 10 0,0
11.12.2019 23:00:00 6,7 5,2 27 15 36 19 SSW 1000,8 9 0,0
11.12.2019 22:00:00 6,8 5,1 31 17 38 20 SSW 1000,9 8 0,0
11.12.2019 21:00:00 7,0 5,3 33 18 40 22 SSW 1001,0 9 0,0
11.12.2019 20:00:00 7,0 5,1 32 18 40 21 SSW 1001,2 9 0,0
11.12.2019 19:00:00 7,1 4,9 36 20 41 22 SSW 1001,4 9 0,0
11.12.2019 18:00:00 7,0 5,1 34 18 41 22 SSW 1001,5 8 0,0
11.12.2019 17:00:00 7,2 5,2 35 19 44 24 SSW 1001,5 10 0,0
11.12.2019 16:00:00 7,2 5,2 38 21 44 24 SSW 1001,3 11 0,0
11.12.2019 15:00:00 7,2 5,2 35 19 44 24 SSW 1001,3 9 0,0
11.12.2019 14:00:00 7,1 5,2 37 20 43 23 SSW 1001,2 9 0,0
11.12.2019 13:00:00 7,1 5,6 33 18 41 22 SSW 1001,3 7 0,0
11.12.2019 12:00:00 7,1 5,6 34 18 41 22 SSW 1001,3 7 0,0
11.12.2019 11:00:00 7,1 5,7 35 19 46 25 SSW 1001,3 7 0,0
11.12.2019 10:00:00 7,1 5,7 42 23 54 29 SSW 1000,6 6 0,0
11.12.2019 09:00:00 7,1 5,7 46 25 58 31 SSW 999,8 6 0,0
11.12.2019 08:00:00 6,8 5,6 48 26 71 38 SSW 999,3 4,2 0,0
11.12.2019 07:00:00 6,7 5,0 59 32 81 44 SSW 998,3 4,7 0,4
11.12.2019 06:00:00 6,5 5,1 67 36 90 48 SSW 997,6 2,7 0,8
11.12.2019 05:00:00 6,1 4,9 71 39 91 49 S 996,7 2,1 1,0
11.12.2019 04:00:00 5,9 4,7 74 40 91 49 S 997,4 2,4 0,5
11.12.2019 03:00:00 5,1 4,5 72 39 98 53 S 998,3 1,6 0,6
11.12.2019 02:00:00 5,4 4,8 74 40 92 50 S 999,2 1,7 0,4
11.12.2019 01:00:00 5,4 5,0 74 40 102 55 S 1000,2 2,0 0,9
11.12.2019 00:00:00 5,7 3,4 80 43 103 56 S 1000,8 2,5 0,2
10.12.2019 23:00:00 5,9 2,7 79 42 102 55 S 1002,0 3,7 0,0
10.12.2019 22:00:00 6,0 2,3 76 41 95 51 S 1003,6 5 0,0
10.12.2019 21:00:00 6,1 2,2 70 38 87 47 S 1005,3 6 0,0
10.12.2019 20:00:00 6,3 2,6 63 34 77 42 S 1007,1 7 0,0
10.12.2019 19:00:00 6,3 2,6 58 32 71 38 S 1009,0 9 0,0
10.12.2019 18:00:00 6,2 1,7 49 26 62 33 S 1010,4 13 0,0
10.12.2019 17:00:00 5,9 1,4 44 24 52 28 S 1011,8 18 0,0
10.12.2019 16:00:00 5,7 1,8 41 22 48 26 S 1013,1 20 0,0
10.12.2019 15:00:00 5,2 1,1 39 21 48 26 SSW 1014,1 19 0,0
10.12.2019 14:00:00 5,4 0,4 39 21 49 26 S 1015,1 34 0,0
10.12.2019 13:00:00 4,7 -2,0 37 20 43 23 S 1015,4 41 0,0
10.12.2019 12:00:00 4,4 -3,6 31 17 36 19 S 1015,9 50 0,0
10.12.2019 11:00:00 2,8 -1,9 19 10 24 13 SSE 1016,3 50 0,0
10.12.2019 10:00:00 2,3 -4,4 0 0 - - N 1016,3 50 0,0
10.12.2019 09:00:00 1,7 -7,1 0 0 0 0 N 1016,0 50 0,0
10.12.2019 08:00:00 1,6 -7,0 0 0 11 6 N 1015,9 50 0,0
10.12.2019 07:00:00 2,0 -7,6 0 0 19 11 N 1015,0 50 0,0
10.12.2019 06:00:00 2,4 -6,5 9 5 23 12 N 1013,7 50 0,0
10.12.2019 05:00:00 2,6 -5,3 18 10 31 17 N 1012,6 50 0,0
10.12.2019 04:00:00 2,1 -4,4 21 11 36 19 N 1011,6 50 0,0
10.12.2019 03:00:00 1,8 -4,9 25 13 39 21 N 1010,3 50 0,0
10.12.2019 02:00:00 2,1 -4,6 29 16 47 25 N 1009,0 50 0,0
10.12.2019 01:00:00 2,3 -4,0 36 20 54 29 N 1007,1 50 0,0
10.12.2019 00:00:00 2,5 -4,3 42 23 59 32 N 1005,0 47 0,0
09.12.2019 23:00:00 3,1 -3,0 44 24 68 37 N 1002,4 34 0,0
09.12.2019 22:00:00 3,3 -3,1 48 26 69 38 N 1000,4 33 0,0
09.12.2019 21:00:00 3,2 -2,5 49 27 83 45 N 997,9 27 0,0
09.12.2019 20:00:00 2,9 0,1 56 30 83 45 NNW 995,3 10 0,1
09.12.2019 19:00:00 2,7 0,6 51 27 72 39 N 991,9 10 0,0
09.12.2019 18:00:00 3,6 1,0 49 27 72 39 N 988,5 39 0,0
09.12.2019 17:00:00 5,8 4,3 37 20 51 28 NNW 985,7 11 0,2
09.12.2019 16:00:00 6,7 3,5 29 16 48 26 WSW 984,1 13 0,3
09.12.2019 15:00:00 6,9 2,8 39 21 61 33 SW 983,2 8 0,0
09.12.2019 14:00:00 7,1 3,9 49 26 61 33 SW 982,6 6 0,0
09.12.2019 13:00:00 6,9 4,7 48 26 58 31 SSW 982,6 7 0,0
09.12.2019 12:00:00 6,7 5,0 46 25 63 34 SW 982,8 6 0,0
09.12.2019 11:00:00 6,7 4,7 50 27 64 35 SSW 982,5 7 0,0
09.12.2019 10:00:00 6,5 4,3 48 26 59 32 SSW 982,5 7 0,0
09.12.2019 09:00:00 6,5 4,3 45 24 60 33 SSW 982,4 7 0,0
09.12.2019 08:00:00 6,6 4,3 50 27 60 32 SSW 982,0 7 0,0
09.12.2019 07:00:00 6,6 4,4 44 24 57 31 SW 981,8 7 0,0
09.12.2019 06:00:00 6,6 4,6 42 23 61 33 SW 981,6 8 0,0
09.12.2019 05:00:00 6,7 4,5 47 26 63 34 SW 981,3 8 0,0
09.12.2019 04:00:00 6,6 4,6 51 28 61 33 SW 980,8 8 0,0
09.12.2019 03:00:00 6,4 4,2 48 26 66 35 SSW 980,6 8 0,0
09.12.2019 02:00:00 6,6 4,1 52 28 63 34 SW 980,5 9 0,0
09.12.2019 01:00:00 6,7 4,2 51 28 65 35 SW 980,5 9 0,0
09.12.2019 00:00:00 6,6 4,4 50 27 72 39 SW 980,1 7 0,0
08.12.2019 23:00:00 7,1 4,4 50 27 62 34 SW 980,2 8 0,0
08.12.2019 22:00:00 6,8 4,6 51 27 61 33 SW 980,0 7 0,0
08.12.2019 21:00:00 7,1 4,6 47 26 58 32 SW 980,1 8 0,0
08.12.2019 20:00:00 7,2 4,5 44 24 64 35 SW 980,3 7 0,0
08.12.2019 19:00:00 7,3 4,9 43 23 66 36 SW 980,1 8 0,0
08.12.2019 18:00:00 7,5 5,0 49 26 62 34 WSW 979,6 9 0,0
08.12.2019 17:00:00 8,1 5,6 43 23 52 28 WSW 979,4 7 0,0
08.12.2019 16:00:00 8,4 5,7 40 21 55 30 WSW 979,1 7 0,0
08.12.2019 15:00:00 8,6 6,2 44 24 58 31 WSW 978,8 6 0,0
08.12.2019 14:00:00 8,8 7,6 38 21 84 45 WSW 978,5 6 0,2
08.12.2019 13:00:00 8,5 8,1 51 28 74 40 SW 977,8 3,8 0,2
08.12.2019 12:00:00 8,0 7,4 61 33 80 43 SSW 977,8 1,8 0,1
08.12.2019 11:00:00 8,0 7,4 63 34 78 42 SSW 978,6 2,2 0,3
08.12.2019 10:00:00 7,9 7,1 61 33 74 40 SSW 979,9 2,5 0,3
08.12.2019 09:00:00 7,7 7,1 57 31 69 37 S 981,7 2,6 1,4
08.12.2019 08:00:00 7,3 6,7 58 31 71 38 S 983,5 2,1 1,1
08.12.2019 07:00:00 7,2 6,6 55 30 67 36 S 985,6 2,9 1,8
08.12.2019 06:00:00 7,0 6,4 46 25 56 30 S 988,0 3,1 1,5
08.12.2019 05:00:00 6,6 6,0 42 23 49 26 S 990,7 5 0,9
08.12.2019 04:00:00 6,2 5,0 34 19 41 22 S 993,1 8 0,3
08.12.2019 03:00:00 6,1 4,1 33 18 38 21 SSW 994,8 12 0,0
08.12.2019 02:00:00 6,1 4,1 30 16 36 20 SW 996,4 14 0,0
08.12.2019 01:00:00 6,0 3,7 27 15 35 19 SW 997,9 17 0,0
08.12.2019 00:00:00 6,3 2,0 27 15 38 21 WSW 998,4 24 0,0
07.12.2019 23:00:00 6,4 0,9 24 13 41 22 W 999,0 27 0,0
07.12.2019 22:00:00 6,3 0,6 31 17 49 26 W 999,3 27 0,0
07.12.2019 21:00:00 6,2 -0,1 37 20 53 28 WNW 999,0 22 0,0
07.12.2019 20:00:00 6,3 0,4 38 21 53 28 WNW 998,7 22 0,0
07.12.2019 19:00:00 6,4 1,1 42 23 58 31 WNW 998,2 19 0,0
07.12.2019 18:00:00 6,6 1,1 43 23 59 32 WNW 997,9 16 0,0
07.12.2019 17:00:00 6,8 -0,4 47 26 61 33 WNW 997,0 18 0,0
07.12.2019 16:00:00 6,7 1,8 48 26 63 34 WNW 996,4 16 0,0
07.12.2019 15:00:00 7,0 1,3 50 27 62 34 WNW 995,2 15 0,0
07.12.2019 14:00:00 7,0 2,3 49 27 68 37 WNW 994,2 14 0,0
07.12.2019 13:00:00 7,1 2,4 51 28 68 37 WNW 993,5 14 0,0
07.12.2019 12:00:00 7,4 2,7 48 26 63 34 WNW 993,1 14 0,0
07.12.2019 11:00:00 7,3 2,0 51 28 72 39 WNW 992,4 15 0,0
07.12.2019 10:00:00 7,4 2,5 55 30 72 39 WNW 991,8 17 0,0
07.12.2019 09:00:00 7,5 3,4 51 28 67 36 WNW 990,5 15 0,0
07.12.2019 08:00:00 7,9 4,8 47 26 61 33 WNW 989,1 16 0,0
07.12.2019 07:00:00 8,2 7,4 24 13 46 25 W 988,2 9 0,0
07.12.2019 06:00:00 8,3 7,9 29 16 42 23 W 987,8 12 0,0
07.12.2019 05:00:00 8,1 7,7 19 11 26 14 WSW 987,5 9 0,0
07.12.2019 04:00:00 8,2 7,8 23 12 41 22 WSW 987,3 3,1 0,1
07.12.2019 03:00:00 8,3 7,9 33 18 41 22 SW 987,1 4,9 0,0
07.12.2019 02:00:00 8,1 7,8 32 18 48 26 SSW 987,1 3,1 0,0
07.12.2019 01:00:00 8,1 7,7 36 20 52 28 SW 987,5 4,3 0,0
07.12.2019 00:00:00 8,1 7,7 36 19 49 26 SSW 987,8 6 0,0
06.12.2019 23:00:00 8,1 7,7 41 22 54 29 SSW 988,3 4,2 0,0
06.12.2019 22:00:00 8,0 7,6 44 24 51 28 SSW 989,0 5 0,0
06.12.2019 21:00:00 7,9 7,3 44 24 56 31 SSW 989,3 4,9 1,1
06.12.2019 20:00:00 8,2 7,6 43 23 52 28 SSW 989,7 4,1 0,5
06.12.2019 19:00:00 8,2 7,9 40 21 53 28 SSW 990,4 8 0,0
06.12.2019 18:00:00 8,2 7,9 39 21 47 25 SSW 990,9 2,5 0,1
06.12.2019 17:00:00 8,3 8,0 37 20 45 24 SSW 991,3 4,0 0,0
06.12.2019 16:00:00 8,3 7,9 36 19 46 25 SSW 991,7 3,1 0,0
06.12.2019 15:00:00 8,3 7,4 32 17 40 21 SW 992,2 6 0,0
06.12.2019 14:00:00 8,3 6,9 28 15 49 27 WSW 992,9 8 0,0
06.12.2019 13:00:00 8,2 6,8 33 18 48 26 SW 993,2 - 0,0
06.12.2019 12:00:00 8,5 6,8 36 19 44 24 WSW 993,0 9 0,0
06.12.2019 11:00:00 8,5 6,8 36 19 49 26 WSW 993,4 9 0,0

tt = temperature
td = dewpoint
ff = wind speed
fx = gusts
dd = wind direction
ppp = reduced air pressure
vv = visibility
rr = precipitation

Next stations